CDT,Max TemperatureF,Mean TemperatureF,Min TemperatureF,Max Dew PointF,MeanDew PointF,Min DewpointF,Max Humidity, Mean Humidity, Min Humidity, Max Sea Level PressureIn, Mean Sea Level PressureIn, Min Sea Level PressureIn, Max VisibilityMiles, Mean VisibilityMiles, Min VisibilityMiles, Max Wind SpeedMPH, Mean Wind SpeedMPH, Max Gust SpeedMPH,PrecipitationIn, CloudCover, Events, WindDirDegrees
2012-8-1,93,78,64,72,67,63,94,69,41,29.99,29.92,29.83,10,10,9,16,8,22,0.00,0,,181
2012-8-2,86,77,68,68,66,63,94,71,51,29.94,29.88,29.85,10,10,5,17,9,26,0.02,1,,53
2012-8-3,93,80,68,72,68,63,94,69,43,29.90,29.84,29.73,10,10,8,16,8,23,0.00,0,,138
2012-8-4,77,70,62,70,61,52,100,73,41,30.06,29.95,29.80,10,10,3,17,9,28,0.13,2,Rain,320
2012-8-5,75,65,55,59,54,50,100,70,41,30.27,30.19,30.06,10,10,10,13,7,15,0.00,0,,337
2012-8-6,91,74,57,64,57,52,88,59,31,30.18,30.08,29.97,10,10,9,14,8,22,0.00,0,,184
2012-8-7,91,76,62,72,63,57,88,62,40,30.03,29.99,29.97,10,10,9,15,7,20,0.00,0,,72
2012-8-8,82,73,64,68,64,61,94,75,51,30.03,29.97,29.91,10,10,4,23,6,44,0.08,2,Rain,18
2012-8-9,80,70,59,66,59,50,100,72,39,30.08,30.03,29.99,10,9,2,20,11,30,0.00,2,,358
2012-8-10,73,62,51,57,54,52,100,76,50,30.17,30.12,30.07,10,10,9,13,7,17,0.00,1,,32
2012-8-11,73,62,51,57,54,48,94,72,50,30.13,30.07,29.99,10,10,9,10,3,,0.00,1,,98
2012-8-12,69,63,57,63,58,54,100,89,73,30.01,29.95,29.90,10,8,2,14,9,20,0.12,7,Rain,101
2012-8-13,77,68,59,61,57,54,100,76,44,30.11,30.06,30.01,10,9,2,14,8,17,0.00,4,,339
2012-8-14,82,68,55,59,55,50,94,64,32,30.03,29.96,29.87,10,10,8,14,7,23,0.00,1,,216
2012-8-15,86,72,59,68,62,59,100,71,45,29.88,29.81,29.73,10,10,7,20,11,30,0.00,1,,192
2012-8-16,73,65,53,64,52,46,94,66,41,30.11,30.01,29.83,10,10,2,20,14,33,0.03,2,Rain,329
2012-8-17,73,60,46,48,45,41,93,62,33,30.15,30.11,30.05,10,10,10,12,6,15,0.00,0,,326
2012-8-18,60,54,48,55,51,45,100,87,72,30.10,30.05,30.02,10,9,2,14,4,21,0.01,2,Rain,22
2012-8-19,73,60,48,57,53,48,100,79,47,30.10,30.05,30.00,10,9,0,12,7,14,0.00,2,Fog,313
2012-8-20,77,64,51,59,53,48,100,69,36,30.04,30.02,29.97,10,10,8,9,2,,0.00,1,,34
2012-8-21,80,65,50,59,53,48,94,66,34,30.08,30.04,30.00,10,10,10,10,6,16,0.00,0,,133
2012-8-22,89,72,55,61,55,50,88,59,26,30.00,29.95,29.89,10,10,10,21,10,30,0.00,0,,180
2012-8-23,89,74,59,64,60,54,82,61,40,29.95,29.90,29.85,10,10,9,23,11,34,0.00,0,,188
2012-8-24,86,76,66,66,64,57,94,68,45,29.93,29.90,29.86,10,10,7,18,11,28,0.00,3,,199
2012-8-25,69,66,64,68,66,64,100,97,83,29.95,29.92,29.90,10,4,0,17,8,25,0.27,7,Rain,170
2012-8-26,82,74,66,70,66,61,100,84,58,30.10,30.01,29.94,10,6,0,9,4,,0.00,5,Fog,7
2012-8-27,86,73,60,70,63,57,94,74,45,30.19,30.13,30.09,10,10,9,10,4,14,0.00,0,,200
2012-8-28,89,76,64,64,62,59,94,67,36,30.16,30.06,29.94,10,10,2,20,8,31,0.00,0,,186
2012-8-29,95,80,64,63,58,52,88,54,24,29.98,29.90,29.83,10,10,9,21,11,30,0.00,0,,196
2012-8-30,95,80,66,63,60,57,83,54,30,29.95,29.88,29.85,10,10,9,23,11,34,0.00,0,,197
2012-8-31,89,76,64,64,61,54,94,64,38,30.06,30.02,29.96,10,10,9,15,9,22,0.00,0,,52